www.pogodaiklimat.ru

АРХИВ ПОГОДЫ в Майами

Время (UTC), дата Ветер
(напр.,м/с)
 
Видим.   Явления Облачность Т
(С)
Тd
(С)
f
(%)
Тe
(С)
Тes
(С)
Комфортность

P
(гПа)

Po
(гПа)
Тmin
(С)
Tmax
(С)
R
(мм)
SD
(см)
08:53 24.03 В  16 км    5/5 1140 м  +19.4  +13.9  70  +21  +21  комфорт  1021.4  1020.9         
09:53 24.03 ЮВ  16 км    8/5 1200 м
[средняя] 
+21.1  +13.9  63  +24  +24  комфорт  1022.1  1021.9         
10:53 24.03 В  16 км    8/2 1200 м
[верхняя] 
+21.1  +13.9  63  +24  +24  комфорт  1022.5  1022.2  +18.9  +21.7     
11:53 24.03 В  16 км    8/5 1200 м
[верхняя] 
+22.8  +14.4  59  +26  +27  жарко  1023.1  1022.5         
12:53 24.03 В  16 км    8/5 1260 м
[верхняя] 
+25.0  +14.4  52  +28  +28  жарко  1023.5  1023.2         
13:53 24.03 В  16 км    8/5 1260 м
[верхняя] 
+25.0  +13.9  50  +27  +27  жарко  1023.5  1023.2         
14:53 24.03 В  16 км    8/5 1290 м
[верхняя] 
+26.1  +14.4  48  +28  +29  жарко  1023.6  1023.2         
15:53 24.03 В  8
{10} 
16 км    8/8 1290 м
[верхняя] 
+26.1  +15.0  50  +29  +29  жарко  1023.1  1022.5         
16:53 24.03 В  7
{11} 
16 км    8/8 1350 м
[средняя верхняя] 
+26.1  +15.6  52  +29  +30  жарко  1022.5  1022.2  +21.1  +26.7     
17:53 24.03 В  6
{10} 
16 км    8/5 1230 м
[средняя верхняя] 
+25.0  +14.4  52  +28  +29  жарко  1022.1  1021.5         
18:53 24.03 ЮВ  16 км    8/8 1230 м
[верхняя] 
+26.1  +15.0  50  +29  +30  жарко  1021.7  1021.2         
19:53 24.03 В  16 км    8/8 1200 м
[верхняя] 
+25.0  +15.0  54  +28  +29  жарко  1021.2  1020.9         
20:53 24.03 ЮВ  16 км    8/5 1050 м
[верхняя] 
+25.0  +15.0  54  +28  +29  жарко  1021.3  1020.9         
21:53 24.03 В  16 км    8/2 1080 м
[верхняя] 
+23.9  +14.4  55  +26  +27  жарко  1021.2  1020.9         
22:53 24.03 В  16 км    8/2 900 м
[верхняя] 
+23.3  +15.0  60  +27  +27  душно  1021.2  1020.9  +23.3  +26.7     
23:53 24.03 В  16 км    8/2 900 м
[верхняя] 
+22.8  +15.6  64  +27  +27  душно  1021.4  1020.9         
00:53 25.03 В  16 км    5/2 750 м
[верхняя] 
+22.8  +15.6  64  +27  +27  душно  1021.7  1021.2         
01:53 25.03 В  16 км    5/2 750 м
[верхняя] 
+22.8  +15.6  64  +27  +27  душно  1022.1  1021.5         
02:53 25.03 В  16 км    5/2 750 м
[верхняя] 
+22.2  +15.6  66  +26  +26  душно  1021.9  1021.5         
03:53 25.03 В  16 км    5/2 1050 м
[верхняя] 
+22.2  +16.1  68  +26  +26  душно  1021.4  1020.9         
04:53 25.03 В  16 км    5/2 1050 м
[верхняя] 
+22.2  +16.1  68  +26  +26  душно  1020.8  1020.5  +21.7  +23.3     
05:53 25.03 В  16 км    2/2 1050 м
[верхняя] 
+21.1  +16.1  73  +24  +24  комфорт  1020.1  1019.5         
06:53 25.03 В  16 км    2/2 1050 м
[верхняя] 
+21.1  +16.1  73  +24  +24  комфорт  1019.3  1018.8         
07:53 25.03   16 км    2/2 1050 м  +20.6  +16.1  75  +23  +23  комфорт  1018.9  1018.5         
08:53 25.03   16 км    2/2 840 м  +21.1  +16.7  76  +25  +25  комфорт  1018.8  1018.5         
09:53 25.03   16 км    2/2 840 м
[средняя] 
+20.6  +16.7  78  +24  +24  комфорт  1018.9  1018.5         
10:53 25.03   16 км    2/2 840 м
[средняя] 
+20.0  +16.7  81  +22  +22  комфорт  1019.2  1018.8  +20.0  +22.2     
11:53 25.03 С  16 км    2/2 690 м
[средняя] 
+23.9  +17.8  69  +28  +29  душно  1019.5  1019.2         
12:53 25.03 В  16 км    8/8 750 м
[средняя] 
+25.6  +18.9  66  +31  +31  очень
душно 
1019.8  1019.5         
13:53 25.03 ЮВ  16 км    8/8 810 м  +26.1  +18.9  65  +31  +32  очень
душно 
1019.9  1019.5         
14:53 25.03 В  16 км    8/8 840 м  +27.2  +19.4  62  +33  +34  очень
душно 
1019.8  1019.5         
15:53 25.03 ЮВ  16 км    5/5 750 м  +27.2  +19.4  62  +33  +35  очень
душно 
1019.5  1019.2         
16:53 25.03 В  16 км  слабый дождь  8/8 750 м
[средняя] 
+26.1  +19.4  67  +32  +32  очень
душно 
1018.6  1018.1  +20.0  +28.9     
17:05 25.03 нст  16 км  гроза со слабым дождем  8/8 750 м
[средняя верхняя] 
+25.6  +18.9  66  +31  +33  очень
душно 
  1018.5         
17:34 25.03 ЮВ  11 км  слабый дождь  8/8 750 м
[средняя верхняя] 
+23.3  +20.6  85  +31  +34  очень
душно 
  1018.1         
17:53 25.03 В  16 км    5/2 750 м
[средняя верхняя] 
+25.6  +21.7  79  +33  +40  очень
душно 
1018.2  1017.8         
18:53 25.03 В  16 км    5/5 750 м
[верхняя] 
+26.7  +20.0  67  +33  +37  очень
душно 
1017.3  1016.8         
19:53 25.03 В  16 км    5/5 930 м
[верхняя] 
+26.1  +19.4  67  +32  +34  очень
душно 
1016.8  1016.5      10.7   
20:53 25.03 ЮВ  16 км    5/5 900 м
[верхняя] 
+25.0  +18.9  69  +30  +32  душно  1016.8  1016.5         
21:53 25.03 ЮВ  16 км    2/2 750 м
[верхняя] 
+25.0  +19.4  71  +30  +31  душно  1016.4  1016.1         
22:53 25.03 ЮВ  16 км    2/2 750 м  +23.9  +19.4  76  +29  +29  душно  1016.8  1016.5  +22.8  +27.2  10.7   
23:53 25.03 ЮВ  16 км    2/2 1260 м  +23.9  +19.4  76  +29  +29  душно  1017.1  1016.8         
00:53 26.03 ЮВ  16 км    2/2 1650 м  +23.3  +19.4  79  +30  +30  очень
душно 
1017.5  1017.1         
01:53 26.03 ЮВ  16 км    5/5 1470 м  +23.3  +19.4  79  +30  +30  очень
душно 
1017.9  1017.5         
02:53 26.03 ЮВ  16 км    5/2 1500 м
[средняя] 
+22.8  +20.0  84  +29  +29  очень
душно 
1017.6  1017.1         
03:53 26.03 Ю  16 км    2/2 900 м
[средняя] 
+22.8  +20.0  84  +29  +29  очень
душно 
1017.4  1017.1         
04:53 26.03 ЮЗ  16 км    2/2 1050 м  +22.8  +20.0  84  +29  +29  очень
душно 
1017.1  1016.8  +22.2  +23.9     
05:53 26.03   16 км    2/2 1050 м  +22.2  +20.0  87  +28  +28  душно  1016.6  1016.1         

 

Местоположение метеостанции Miami International Airport: широта 25.7906 долгота -80.3164 высота над уровнем моря 3 м.

В архиве по умолчанию представлена погода в Майами за последние 1-2 суток. Обновление информации о фактической погоде в базе происходит ежечасно! Архивные данные за месяц целиком и за предыдущие месяцы Вы можете получить, выбрав интересующий диапазон дат из раскрывающегося списка и нажав кнопку "Ввод!".

Внимание! Архив погоды МЕТАР в базе сайта в настоящее время начинается c 1 января 2011 г. Нет смысла пытаться выбрать более раннюю дату.

Внимание! Время в таблицах - всемирное. Для получения местного времени необходимо прибавить поправку, которая в Майами равна -5 ч.

Ветер - указаны скорость ветра в м/с и направление, откуда дует ветер: С - северный, СВ - северо-восточный, В - восточный, ЮВ - юго-восточный, Ю - южный, ЮЗ - юго-западный, З - западный, СЗ - северо-западный.
Видимость - горизонтальная дальность видимости в метрах или километрах. При видимости от 1 до 10 км при отсутствии осадков обычно наблюдается дымка, при ухудшении видимости до 1 км и менее - туман. В сухую погоду видимость может ухудшаться дымом, пылью или мглою.
Атмосферные явления - указаны явления, наблюдавшиеся в указанный момент времени.
Облачность - указаны через наклонную черту верхняя и нижняя облачность в баллах и высота нижней границы облаков в метрах. Внимание: облачность, как и прочие метеорологические величины в США измеряются автоматическими метеостанциями. Указанные значения в баллах носят условный характер и показывают процент времени, в течение которого, в среднем, лазерный луч высотомера отражался от облаков обратно.
T - Температура воздуха - температура, измеренная на высоте 2 м над землей.
Td - Температура точки росы - температура, при понижении до которой содержащийся в воздухе водяной пар достигнет насыщения.
f - Относительная влажность воздуха - влажноcть воздуха, измеренная на высоте 2 м над землей.
Te - Эффективная температура - температура, которую ощущает одетый по сезону человек в тени. Характеристика душности погоды. При расчете учитывается влияние влажности воздуха и скорости ветра на теплоощущения человека.
Tes - Эффективная температура на солнце - температура, которую ощущает человек, с поправкой на солнечный нагрев. Характеристика знойности погоды. Зависит от высоты солнца над горизонтом, облачности и скорости ветра. Ночью, в пасмурную погоду, а также при ветре 12 м/с и более поправка равна нулю.
P - Атмосферное давление - приведенное к уровню моря атмосферное давление.
Po - Атмосферное давление - измеренное на уровне метеостанции атмосферное давление.
Tmin - Минимальная температура - минимум температуры воздуха на высоте 2 м над землей.
Tmax - Максимальная температура - максимум температуры воздуха на высоте 2 м над землей.
R - Количество осадков - Количество выпавших осадков за 3 или 6 часов, мм.
SD - Снежный покров - Высота снежного покрова, см.